Burlington, CO

12:32 AM MDT on April 29, 2017 (GMT -0600)
Kit Carson County

Weather History for KITR - October, 2011

Change the Weather History Date:

Wednesday, October 5, 2011

  Actual Average Record
Temperature  
Mean Temperature 66 °F 55 °F  
Max Temperature 76 °F 70 °F 93 °F (2007)
Min Temperature 56 °F 40 °F 24 °F (1932)
Cooling Degree Days 1    
Growing Degree Days 16 (Base 50)    
Moisture  
Dew Point 44 °F    
Average Humidity 50    
Maximum Humidity 78    
Minimum Humidity 27    
Precipitation  
Precipitation 0.00 in 0.04 in 0.83 in (1951)
Month to date precipitation 0.00 0.21  
Year to date precipitation 15.10 15.50  
Sea Level Pressure  
Sea Level Pressure 29.71 in    
Wind  
Wind Speed 23 mph (South)    
Max Wind Speed 34 mph    
Max Gust Speed 47 mph    
Visibility 10 miles    
Events      
T = Trace of Precipitation, MM = Missing Value Source: NWS Daily Summary

Daily Weather History Graph

Daily Weather History Graph

Search for Another Location

Airport or City:

Trip Planner

Search our weather history database for the weather conditions in past years. The results will help you decide how hot, cold, wet, or windy it might be!

Date:

Astronomy

Oct. 05, 2011 Rise Set
Actual Time 6:48 AM MDT 6:25 PM MDT
Civil Twilight 6:22 AM MDT 6:52 PM MDT
Nautical Twilight 5:51 AM MDT 7:23 PM MDT
Astronomical Twilight 5:19 AM MDT 7:54 PM MDT
Moon 3:05 PM MDT (10/5) 12:39 AM MDT (10/5)
Length of Visible Light 12h 30m
Length of Day
11h 36m
Waxing Gibbous, 67% of the Moon is Illuminated
Oct 5
Waxing Gibbous
Oct 11
Full
Oct 19
Last Quarter
Oct 26
New
Nov 2
First Quarter

Hourly Weather History & Observations

Time (MDT) Temp. Dew Point Humidity Pressure Visibility Wind Dir Wind Speed Gust Speed Precip Events Conditions
12:53 AM 63.0 °F 28.0 °F 27% 29.82 in 10.0 mi South 21.9 mph 29.9 mph N/A   Clear
1:53 AM 60.1 °F 30.0 °F 32% 29.81 in 10.0 mi South 16.1 mph 26.5 mph N/A   Clear
2:53 AM 60.1 °F 30.9 °F 33% 29.79 in 10.0 mi South 19.6 mph 28.8 mph N/A   Clear
3:53 AM 57.9 °F 34.0 °F 41% 29.78 in 10.0 mi SSE 18.4 mph 24.2 mph N/A   Clear
6:53 AM 57.0 °F 44.1 °F 62% 29.78 in 10.0 mi South 17.3 mph 25.3 mph N/A   Clear
7:53 AM 57.9 °F 45.0 °F 62% 29.78 in 10.0 mi South 20.7 mph 28.8 mph N/A   Clear
8:53 AM 60.1 °F 46.9 °F 62% 29.78 in 10.0 mi South 26.5 mph 35.7 mph N/A   Clear
9:53 AM 64.9 °F 48.0 °F 54% 29.77 in 10.0 mi South 20.7 mph 33.4 mph N/A   Clear
10:53 AM 71.1 °F 46.0 °F 41% 29.73 in 10.0 mi South 24.2 mph 43.7 mph N/A   Clear
11:53 AM 73.0 °F 46.0 °F 38% 29.71 in 10.0 mi South 26.5 mph 40.3 mph N/A   Clear
1:53 PM 75.0 °F 46.0 °F 36% 29.66 in 10.0 mi South 25.3 mph 39.1 mph N/A   Clear
2:53 PM 73.9 °F 44.1 °F 34% 29.65 in 10.0 mi South 28.8 mph 36.8 mph N/A   Clear
3:53 PM 72.0 °F 43.0 °F 35% 29.64 in 10.0 mi SSE 31.1 mph 43.7 mph N/A   Clear
5:53 PM 70.0 °F 45.0 °F 41% 29.63 in 10.0 mi SSE 25.3 mph 40.3 mph N/A   Clear
6:53 PM 66.9 °F 45.0 °F 45% 29.65 in 10.0 mi South 29.9 mph 39.1 mph N/A   Clear
7:53 PM 63.0 °F 44.1 °F 50% 29.66 in 10.0 mi South 25.3 mph 33.4 mph N/A   Clear
8:53 PM 61.0 °F 50.0 °F 67% 29.68 in 10.0 mi South 28.8 mph 41.4 mph N/A   Clear
9:53 PM 59.0 °F 52.0 °F 78% 29.67 in 10.0 mi South 31.1 mph 42.6 mph N/A   Mostly Cloudy
10:53 PM 60.1 °F 53.1 °F 78% 29.65 in 10.0 mi South 34.5 mph 47.2 mph N/A   Overcast
11:53 PM 60.1 °F 53.1 °F 78% 29.61 in 10.0 mi South 28.8 mph 41.4 mph N/A   Overcast